EDT,Max TemperatureF,Mean TemperatureF,Min TemperatureF,Max Dew PointF,MeanDew PointF,Min DewpointF,Max Humidity, Mean Humidity, Min Humidity, Max Sea Level PressureIn, Mean Sea Level PressureIn, Min Sea Level PressureIn, Max VisibilityMiles, Mean VisibilityMiles, Min VisibilityMiles, Max Wind SpeedMPH, Mean Wind SpeedMPH, Max Gust SpeedMPH,PrecipitationIn, CloudCover, Events, WindDirDegrees
2014-4-1,54,40,26,36,29,23,85,66,46,30.20,30.02,29.81,10,10,10,23,7,32,0.00,4,,154
2014-4-2,50,42,34,32,29,26,76,61,46,30.23,30.11,29.99,10,10,10,23,11,28,0.00,3,,268
2014-4-3,41,33,25,28,25,22,92,74,56,30.26,30.20,30.09,10,10,7,15,6,20,T,5,,45
2014-4-4,52,44,35,45,38,25,89,77,64,30.04,29.70,29.48,10,9,2,37,15,51,0.51,8,Rain-Snow,155
2014-4-5,43,36,29,33,27,22,82,68,54,30.18,29.89,29.65,10,9,2,30,17,40,0.01,7,Snow,263
2014-4-6,53,39,25,27,24,22,85,58,30,30.25,30.20,30.14,10,10,10,12,5,15,0.00,1,,260
2014-4-7,52,41,30,39,31,22,93,62,30,30.13,29.85,29.51,10,8,2,23,9,31,0.61,7,Rain-Thunderstorm,125
2014-4-8,51,44,37,46,39,34,96,81,66,29.72,29.46,29.26,10,8,2,28,10,36,0.18,7,Rain,269
2014-4-9,49,40,31,34,26,17,92,61,29,30.02,29.89,29.72,10,10,7,17,8,24,0.00,2,,298
2014-4-10,72,54,36,50,31,24,89,55,20,30.01,29.87,29.70,10,10,9,32,16,41,0.07,5,Rain,221
2014-4-11,58,49,39,50,36,22,96,63,30,30.06,30.01,29.88,10,9,4,13,5,15,0.02,5,Rain,328
2014-4-12,63,51,38,43,37,31,92,68,43,30.19,30.13,30.06,10,10,10,17,8,21,0.00,4,,128
2014-4-13,82,65,47,54,47,33,82,57,31,30.03,29.88,29.78,10,10,10,23,9,28,0.05,6,Rain,229
2014-4-14,82,66,49,57,53,49,93,63,33,29.79,29.66,29.58,10,9,2,33,13,41,0.23,8,Rain,231
2014-4-15,49,37,25,47,30,12,93,78,63,30.17,29.77,29.57,10,7,2,26,14,32,0.36,8,Rain-Snow,305
2014-4-16,38,31,24,17,15,10,63,49,35,30.60,30.45,30.19,10,10,7,18,8,25,T,4,Snow,356
2014-4-17,58,43,27,26,20,16,63,44,25,30.64,30.53,30.42,10,10,10,18,10,25,0.00,4,,144
2014-4-18,64,53,42,40,33,27,83,61,39,30.42,30.29,30.22,10,10,8,18,8,22,T,5,,211
2014-4-19,50,42,34,39,30,25,83,60,36,30.47,30.41,30.29,10,10,8,16,7,22,0.00,2,,2
2014-4-20,69,50,31,35,29,17,85,50,14,30.46,30.34,30.17,10,10,10,12,4,15,0.00,2,,134
2014-4-21,77,60,43,43,36,31,76,50,23,30.16,29.97,29.74,10,10,10,14,6,18,0.00,6,,230
2014-4-22,62,52,42,55,47,35,93,70,46,29.70,29.60,29.55,10,8,2,23,11,30,0.30,8,Rain,268
2014-4-23,47,43,38,38,33,19,92,67,41,30.04,29.84,29.66,10,10,8,22,13,29,0.23,6,Rain,304
2014-4-24,54,44,33,29,21,16,64,44,24,30.16,30.11,30.05,10,10,10,17,8,26,0.00,1,,327
2014-4-25,63,51,38,45,29,20,89,57,25,30.05,29.81,29.60,10,10,3,22,10,30,0.17,7,Rain,111
2014-4-26,50,45,40,45,39,34,93,77,61,30.02,29.81,29.71,10,8,2,22,10,29,0.03,7,Rain,275
2014-4-27,54,47,39,34,32,29,79,60,41,30.24,30.14,30.02,10,10,10,16,7,24,0.00,5,,352
2014-4-28,57,45,32,36,31,28,100,69,38,30.22,30.13,30.01,10,10,10,23,9,29,0.00,4,,70
2014-4-29,56,52,47,45,40,35,86,68,50,30.14,30.04,29.99,10,9,4,29,16,39,0.36,7,Rain,141
2014-4-30,53,50,47,52,46,39,96,84,71,30.15,29.99,29.80,10,7,2,17,9,23,0.72,8,Rain,126